RH
13 14 14 15 17 19 21 22 22 21 19 18 19 21 23 26 26 24 21 20 20 21 22 24 25 27 30 34 40 48 58 65 69 69 67 66 66 68 70 71 71 69 67 64 62 62 63 62 61 60 60 60 57 53 51 50 50 50 51 54 58 60 62 63 62 64 69 73 75 77 79 82 82 82 85 87 86 86 88 89 89 88 89 90 90
10 11 11 11 12 13 14 16 17 19 19 18 16 16 17 18 21 22 22 21 18 17 18 20 22 23 25 27 29 33 39 46 54 61 64 66 67 67 68 69 71 72 72 70 67 66 65 65 64 63 62 63 64 63 62 60 59 57 54 53 54 57 59 60 58 54 53 56 59 62 64 66 68 69 70 71 72 72 73 73 73 73 73 73 74
7 9 9 10 10 10 11 12 13 14 15 16 16 15 15 14 15 17 19 20 20 18 16 15 17 19 22 23 24 27 30 33 38 43 48 54 60 64 66 67 69 71 73 73 73 72 70 69 69 68 65 63 63 65 66 67 67 67 66 63 60 59 61 64 66 62 56 51 50 52 54 54 55 57 58 60 60 60 60 60 60 60 60 60 60
5 6 6 7 8 8 9 9 10 11 12 13 14 14 13 13 13 14 15 17 18 19 18 15 14 14 16 19 21 22 24 27 31 34 37 39 43 48 54 59 64 68 72 74 75 75 75 74 75 75 73 69 65 65 66 68 68 69 70 71 70 69 68 70 73 75 73 69 63 58 55 53 53 52 54 57 59 60 60 58 57 55 55 54 53
4 4 4 5 5 6 6 7 7 8 9 10 11 11 12 12 12 12 12 13 15 16 17 18 17 15 14 14 16 19 20 22 24 28 32 34 36 36 38 43 48 55 62 69 74 77 77 78 80 80 79 77 74 71 70 71 71 70 69 69 70 71 73 75 78 82 87 90 86 77 68 63 60 57 57 59 61 64 67 67 66 64 62 61 60
4 4 4 4 4 4 4 5 5 5 6 7 8 8 9 10 10 11 11 12 12 13 14 16 17 18 17 15 13 14 16 18 20 22 25 29 32 34 34 34 36 39 44 51 59 67 73 78 82 84 84 83 81 79 78 77 76 75 74 72 69 68 68 69 73 79 86 92 95 93 87 82 78 73 69 67 67 68 69 71 73 73 73 72 70
4 4 4 4 4 4 4 4 4 4 4 5 5 6 6 7 8 8 9 10 11 11 12 13 14 16 17 17 16 14 13 13 15 18 21 24 26 29 32 32 32 33 34 37 42 48 55 62 70 78 84 87 87 86 85 83 81 79 78 78 76 74 72 70 70 72 76 81 87 91 91 90 88 86 82 79 77 75 74 76 79 81 82 81 79
5 5 5 4 4 4 4 4 4 4 4 4 4 4 5 5 5 6 6 7 8 9 9 11 12 13 15 16 17 16 16 14 13 13 15 18 22 25 28 30 31 32 32 33 35 37 41 45 50 57 66 75 82 86 89 89 88 86 83 82 81 80 79 79 77 76 76 78 81 83 85 85 85 87 86 85 85 84 81 80 80 81 82 82 81
5 5 5 5 5 4 4 5 5 4 4 4 4 4 4 5 5 5 5 5 6 6 7 7 9 10 12 14 15 16 17 16 16 15 14 14 17 19 23 26 29 30 31 32 33 34 36 39 41 43 47 52 59 66 73 79 83 86 88 88 88 87 86 84 83 82 81 81 81 82 84 85 85 86 87 88 91 91 88 85 84 83 84 86 87
4 5 5 5 5 5 5 5 5 5 5 5 4 4 5 5 5 5 4 5 5 5 5 6 6 7 8 10 12 14 16 17 17 16 15 15 15 16 18 20 24 27 30 32 32 33 34 35 38 40 41 43 45 48 51 55 61 67 73 79 84 87 89 90 90 90 89 87 86 84 84 85 85 86 87 88 90 92 92 92 93 93 93 95 97
4 4 4 5 5 5 5 5 5 5 5 5 4 4 4 4 4 5 4 5 5 5 5 5 5 6 6 7 8 10 13 15 17 18 17 16 15 15 17 18 20 23 26 29 31 33 34 34 35 37 39 40 42 43 44 45 47 49 53 57 62 67 72 78 83 86 89 91 91 90 90 90 91 90 90 89 89 90 91 93 94 95 96 99 102
4 4 4 4 4 4 5 5 5 5 4 4 4 4 4 4 4 4 4 4 5 5 5 5 5 5 5 6 6 7 8 10 13 16 17 17 17 17 19 19 20 22 23 25 27 29 32 34 35 37 38 39 40 41 42 43 44 45 46 47 49 51 52 56 59 63 67 71 75 78 82 87 92 95 98 98 97 95 94 94 95 96 99 103 106
3 4 3 3 3 4 4 4 4 5 4 4 4 4 4 4 4 4 4 4 4 4 5 5 5 5 5 6 6 6 6 7 9 11 13 15 17 19 21 22 22 22 22 23 24 25 27 30 33 35 37 38 40 41 41 43 43 43 44 44 45 46 47 47 48 48 49 50 52 54 57 61 67 74 79 83 84 84 83 85 86 88 91 95 100
3 3 3 3 3 3 3 4 4 4 4 4 4 3 3 3 3 4 4 4 4 4 4 4 5 5 5 6 6 6 7 6 6 7 9 10 13 16 20 22 23 24 23 23 23 24 25 27 30 32 34 37 39 41 43 45 45 44 44 43 43 44 44 45 45 46 46 46 46 46 45 45 47 49 51 53 55 56 56 57 59 59 61 64 68
3 3 3 3 3 3 3 3 4 4 4 4 3 3 3 3 4 3 3 4 4 4 4 4 4 5 5 5 6 7 7 7 7 7 7 7 9 12 16 19 22 23 24 24 25 25 25 27 29 31 33 35 37 40 43 45 46 46 46 45 45 44 44 44 44 44 44 44 44 44 43 43 43 44 44 44 44 44 44 44 43 43 43 43 45
3 3 3 3 3 3 3 3 4 4 4 4 4 3 3 3 4 4 4 4 4 3 4 4 4 5 5 5 6 6 7 7 7 7 7 7 7 9 11 14 17 20 23 25 26 26 26 27 29 31 33 34 36 38 41 43 45 47 47 47 46 46 46 46 45 44 43 42 42 42 42 42 42 42 42 42 43 43 42 41 40 39 39 39 40
3 3 3 3 3 3 3 3 3 3 4 4 4 4 4 4 3 4 4 4 4 3 4 4 4 4 5 4 5 6 6 7 7 8 8 7 7 8 9 10 12 15 19 22 24 26 27 27 28 30 31 33 35 37 39 41 44 46 47 48 48 48 48 47 46 46 44 43 42 42 42 42 42 41 41 41 41 41 41 41 40 39 39 38 38
4 3 3 3 3 3 3 3 3 3 3 3 4 4 4 4 4 4 4 3 4 4 4 4 4 4 4 4 4 5 5 6 6 7 8 8 8 9 9 9 10 11 14 17 20 24 26 27 28 29 30 32 34 35 38 40 42 44 45 47 48 49 49 49 49 47 46 45 44 44 43 42 42 42 42 42 42 42 42 43 41 40 40 40 40
4 4 4 4 4 3 3 3 3 3 3 3 3 3 3 4 4 4 4 4 4 4 4 4 4 4 4 4 4 4 5 5 5 6 7 8 8 9 9 9 9 10 11 13 16 19 22 24 27 29 31 32 33 33 35 37 39 41 44 46 49 50 50 49 49 47 46 45 45 45 44 43 43 43 43 44 44 45 46 46 45 44 44 44 44
4 4 4 4 4 3 3 3 3 3 3 3 3 3 3 3 3 3 3 3 4 4 3 3 3 3 4 4 4 4 4 4 5 5 6 7 8 10 11 10 9 9 10 11 13 15 17 21 24 27 30 31 32 33 34 35 36 37 40 44 47 49 50 51 51 49 48 46 46 45 45 44 43 44 44 44 45 46 49 50 50 49 49 50 50
4 4 4 4 4 3 4 4 3 3 3 3 3 3 3 3 3 3 3 3 3 3 3 3 3 3 3 3 4 4 4 4 5 5 5 6 7 9 11 11 10 9 10 10 12 13 15 17 20 23 25 28 30 32 34 36 38 37 37 38 40 43 47 51 53 53 52 50 49 49 48 47 47 47 47 48 48 49 51 55 56 56 56 56 57
4 4 4 4 4 4 4 4 4 3 3 3 3 3 3 3 3 3 3 3 3 3 3 3 3 3 3 3 3 4 4 4 4 5 5 6 6 8 10 11 11 10 10 10 11 13 14 15 16 18 20 23 26 30 34 37 40 41 39 37 36 38 41 44 47 49 50 51 51 52 53 53 53 53 53 54 54 54 56 59 61 62 62 63 64
5 4 4 4 4 4 4 4 4 4 3 3 3 3 3 3 3 3 3 3 3 3 3 3 3 3 3 3 4 4 4 4 4 4 5 5 6 7 9 10 11 12 12 11 12 13 13 14 14 15 17 19 21 25 28 33 37 39 39 38 38 38 39 40 42 43 45 46 47 48 49 49 51 52 54 55 57 58 60 62 63 63 64 64 65
5 5 4 4 4 4 4 4 4 4 4 4 3 3 3 3 3 3 3 3 3 3 3 3 3 3 3 4 4 4 4 4 4 4 4 5 5 6 8 9 10 11 12 12 13 13 14 14 14 15 15 17 18 19 21 24 27 31 35 38 39 39 39 40 40 41 42 43 44 45 45 46 47 49 50 52 54 55 56 58 58 58 58 58 57
4 5 4 4 4 4 4 4 4 4 4 4 3 4 3 3 3 3 3 3 3 3 3 3 3 3 3 4 4 4 4 4 5 5 5 5 5 6 7 8 9 10 11 12 12 13 13 14 14 15 15 16 16 17 17 18 20 24 28 31 34 35 35 36 37 39 41 43 44 46 47 47 48 49 49 50 51 51 51 52 52 51 50 50 49
4 4 4 4 4 4 4 4 4 4 4 4 4 4 3 3 3 3 3 3 3 3 3 3 3 3 3 4 4 4 4 4 5 5 5 5 5 6 6 7 8 9 9 11 11 12 13 13 14 14 15 15 16 16 16 17 18 19 21 24 26 28 29 30 32 35 38 41 43 45 46 46 47 48 48 48 49 48 48 47 47 46 46 45 44
4 4 4 4 4 4 4 4 4 4 4 4 4 3 4 4 3 3 3 3 3 3 3 3 3 3 3 4 4 4 4 4 5 5 6 6 6 6 6 7 7 8 9 9 10 11 11 12 13 14 15 16 16 16 17 17 17 18 19 20 21 23 24 25 27 28 30 33 35 37 38 38 39 40 40 42 42 42 42 41 41 41 41 40 40
5 4 4 4 4 4 4 4 4 4 4 4 4 4 4 4 4 4 4 3 3 3 3 3 4 3 4 4 4 4 4 5 5 5 6 6 7 7 7 7 7 8 8 9 10 10 11 11 12 13 15 16 16 17 17 18 18 18 18 19 19 20 20 21 22 23 24 24 26 27 27 28 28 28 28 28 29 30 30 31 31 31 32 32 33
5 4 4 4 4 4 4 4 4 4 4 4 4 4 4 4 4 4 4 4 3 3 3 3 3 3 4 4 4 4 5 5 5 5 6 6 7 7 8 8 8 8 8 8 9 10 10 11 12 13 14 15 16 17 17 18 19 19 19 19 19 19 19 19 19 19 19 19 19 20 20 20 20 20 20 19 19 19 19 20 21 22 23 25 26
5 5 4 4 4 4 4 4 4 4 4 4 4 4 4 4 4 4 4 4 4 4 3 4 4 4 4 4 4 5 5 5 5 5 6 6 7 7 7 8 8 8 9 9 9 10 10 11 11 12 13 14 15 16 17 18 19 19 19 20 19 19 19 18 18 18 17 17 17 17 16 16 16 16 16 15 15 15 14 15 15 16 18 20 22
5 4 4 4 5 4 4 4 4 4 4 4 4 4 4 4 4 4 4 4 4 4 4 4 4 4 4 5 5 5 5 5 5 6 6 6 6 7 7 8 8 8 9 9 10 10 11 11 11 12 12 13 14 16 16 17 18 18 19 19 19 19 19 18 18 17 17 16 16 15 15 15 15 14 14 14 13 13 13 13 14 15 16 17 19
5 5 4 4 5 5 5 4 4 4 4 4 4 4 4 4 4 4 4 4 4 4 4 4 4 4 4 5 5 5 5 6 6 6 6 6 7 7 8 8 8 9 9 10 10 11 11 11 12 12 13 13 14 15 16 17 18 18 18 18 18 18 18 17 17 16 15 15 14 14 14 14 13 13 13 13 13 13 13 14 14 15 16 18 19
5 5 5 5 5 5 5 5 5 5 5 4 5 5 4 5 5 5 5 5 4 4 4 4 4 4 5 5 5 5 6 6 7 7 7 7 7 8 8 9 9 10 10 10 11 11 11 12 12 13 13 14 15 15 16 17 18 18 18 18 18 17 17 16 15 15 14 14 14 13 13 13 13 13 13 14 14 14 15 16 16 17 18 19 20
5 5 5 5 5 5 5 5 5 5 5 5 5 5 5 5 5 5 5 5 5 5 5 5 5 5 5 5 5 6 6 7 7 7 7 8 8 9 9 10 10 10 10 11 11 11 12 12 13 13 13 14 15 16 17 18 19 19 19 18 17 16 15 15 15 15 15 14 14 14 14 14 14 14 15 15 16 16 17 18 19 19 20 21 22
6 5 5 5 5 5 5 5 5 5 5 5 5 5 5 5 5 5 5 5 5 5 5 5 5 5 5 5 6 6 7 7 7 8 8 8 9 10 10 10 11 11 11 11 11 12 12 12 13 14 15 16 17 18 19 20 20 19 19 18 17 17 16 16 16 16 16 16 16 17 17 17 17 17 18 18 19 20 20 21 22 22 23 24 26
6 6 5 5 5 5 5 5 5 5 5 5 5 5 5 5 5 5 5 5 6 6 6 6 6 5 5 6 6 6 7 7 7 8 8 9 10 10 10 10 11 11 11 12 12 13 13 14 15 16 17 18 19 20 20 20 19 19 18 18 19 19 19 19 20 20 20 20 20 20 20 21 21 21 22 23 23 24 25 25 26 27 28 28 29
6 6 6 6 6 6 6 6 6 5 5 5 5 5 5 5 5 6 6 6 6 6 6 6 6 6 6 6 6 6 6 7 7 7 8 9 9 9 10 10 11 11 12 12 13 14 15 16 17 18 19 20 20 20 20 20 20 20 20 20 21 21 21 22 22 22 22 23 23 23 23 23 23 24 24 24 25 25 26 27 27 27 28 28 28
6 6 6 6 6 6 6 6 6 6 5 5 5 5 5 6 5 6 6 6 6 6 6 6 7 7 6 6 6 7 7 7 7 7 7 8 9 9 9 10 11 11 12 13 13 14 15 16 17 18 18 19 19 19 19 19 19 20 20 20 21 21 21 21 21 21 21 21 21 21 22 22 22 23 23 23 23 23 24 24 24 24 23 22 21
6 6 6 6 6 6 6 6 6 6 6 6 6 6 6 6 6 6 6 6 6 6 6 6 7 7 7 7 7 7 7 7 7 7 7 8 8 8 8 9 9 10 10 11 12 13 13 13 14 15 15 15 16 16 16 17 17 18 18 18 19 19 19 19 19 19 19 19 19 19 19 19 19 19 18 18 18 17 17 17 16 15 15 14 14
7 7 6 6 6 6 6 6 6 6 6 6 6 6 6 6 6 6 6 6 6 6 6 6 7 7 7 7 7 7 8 8 8 8 8 8 8 8 8 8 9 9 9 9 10 10 10 10 11 11 11 12 12 12 12 13 13 14 14 14 14 14 14 15 15 15 15 15 14 14 14 14 13 12 12 12 12 12 12 12 12 12 12 12 12
6 6 6 6 6 6 6 6 6 6 6 6 6 6 6 6 6 6 7 7 7 7 7 7 7 7 7 7 7 7 8 8 8 8 8 9 9 9 9 9 9 9 9 9 9 10 10 10 9 9 10 10 10 10 10 10 10 11 11 11 11 11 11 11 11 11 11 11 11 12 12 12 12 12 12 12 12 12 12 13 13 13 13 13 14
6 6 6 6 6 6 6 6 6 6 6 6 6 6 6 6 6 7 7 7 7 7 8 8 8 8 8 8 8 8 8 8 8 8 8 9 9 9 9 10 10 10 10 10 10 10 11 11 11 11 11 11 11 11 11 11 11 11 11 11 11 11 11 12 12 12 12 12 13 13 13 13 13 14 14 14 14 14 14 14 15 15 16 16 17
6 6 6 6 6 6 6 6 6 6 6 6 6 6 6 6 7 7 7 7 7 7 8 8 8 8 9 9 9 9 9 9 9 9 9 9 9 9 9 10 10 10 10 11 11 11 11 11 12 12 12 12 12 12 12 12 12 12 12 12 13 13 13 14 14 14 14 14 14 14 15 15 15 15 15 15 16 16 16 17 17 17 17 18 18
7 6 6 6 6 6 6 6 6 6 6 6 6 6 6 7 7 7 7 7 7 7 8 8 8 9 9 9 9 9 9 9 9 10 10 10 10 10 10 10 10 11 11 11 11 11 12 11 12 12 13 13 13 13 13 13 13 13 13 13 13 14 14 14 14 14 13 13 14 14 14 14 14 14 14 15 15 16 16 16 17 17 17 17 17
6 6 6 6 6 6 6 6 6 6 7 7 7 7 7 7 7 7 8 8 8 8 8 8 8 9 9 9 10 10 10 10 10 10 10 11 11 11 11 11 11 12 12 12 12 12 12 12 12 12 13 13 13 13 13 13 13 13 13 13 13 14 14 14 14 14 14 14 14 14 14 14 14 15 15 15 16 16 16 16 16 17 17 17 17
6 6 6 6 6 6 7 6 6 6 7 7 7 7 7 7 7 7 8 8 8 8 9 9 9 9 9 9 10 10 10 10 11 11 11 11 11 11 11 11 12 12 13 12 13 13 12 13 13 13 13 13 14 14 14 14 13 14 14 14 14 15 15 16 16 15 15 15 15 15 15 16 16 16 16 16 16 17 17 17 17 17 18 18 19
6 6 6 6 6 6 6 7 7 7 7 7 7 7 7 8 8 8 8 8 8 9 9 9 9 10 10 10 10 10 10 11 11 11 12 12 12 12 12 12 13 14 14 14 14 14 14 14 15 15 15 15 15 15 15 15 15 15 15 15 15 16 16 17 17 16 16 17 17 17 17 18 18 18 18 18 19 19 19 20 21 21 22 22 22
6 6 6 6 6 6 6 6 7 7 7 7 7 7 8 8 8 8 8 9 9 9 9 9 9 10 10 10 11 11 11 11 12 12 13 13 13 13 14 14 15 16 16 16 17 17 17 17 18 19 19 19 19 19 19 19 19 19 19 20 20 20 20 21 21 21 21 21 21 22 22 22 22 23 23 23 24 24 25 25 26 26 26 27 28
6 6 6 6 6 6 6 7 7 7 7 7 8 8 8 8 8 9 9 9 9 9 10 10 10 10 10 10 11 12 12 12 13 13 13 14 15 15 15 15 16 16 17 17 18 18 18 19 20 20 21 21 21 22 22 22 22 23 23 23 23 23 23 24 25 25 25 26 26 26 26 27 27 28 29 29 30 31 31 32 32 32 32 33 34
6 6 6 6 6 6 7 7 7 8 8 8 8 8 8 9 9 9 9 9 10 10 10 10 10 11 11 11 11 12 12 13 13 13 14 15 15 16 17 17 18 18 18 19 19 19 19 20 21 21 22 23 23 24 24 24 24 24 25 25 26 26 26 27 28 28 29 29 30 30 31 32 32 33 34 35 36 36 37 37 37 36 36 37 37
6 7 7 7 7 7 7 7 8 8 8 8 9 9 9 9 9 10 10 10 10 10 11 11 11 11 11 12 12 12 13 13 14 14 15 15 16 17 18 19 19 20 21 21 22 22 22 23 24 24 24 25 25 26 26 26 26 27 28 28 29 30 31 31 31 32 32 33 34 35 35 36 36 37 37 38 38 38 38 37 37 37 38 39 40
Wind_Speed
111 111 112 113 115 116 118 119 120 121 121 120 119 120 121 122 123 122 120 119 119 119 119 119 120 120 121 123 124 125 126 128 129 130 131 131 131 131 131 132 132 132 132 131 131 131 131 132 132 132 132 133 134 134 135 135 135 136 136 136 137 137 139 142 143 143 143 143 143 143 143 144 144 145 145 145 146 147 147 147 147 147 147 147 148
108 109 110 111 112 114 115 117 118 120 121 122 121 121 120 121 122 123 124 123 121 120 120 120 120 120 121 122 123 124 125 126 128 129 130 130 130 131 131 132 132 132 133 132 132 132 132 132 133 133 133 133 133 134 134 134 135 136 136 137 136 136 136 137 139 140 141 141 140 140 141 141 141 142 143 143 144 144 145 145 146 146 146 146 146
104 105 107 109 110 111 113 114 116 117 119 120 121 122 122 121 121 122 123 125 124 123 121 120 120 121 121 122 122 123 123 125 126 128 129 130 130 131 131 131 131 131 132 133 133 133 133 133 133 134 134 135 134 134 134 134 135 135 136 136 137 136 136 135 136 137 138 138 138 138 139 139 139 139 139 139 140 141 141 142 142 143 143 144 144
99 101 103 105 107 109 110 111 113 114 116 117 119 120 121 121 121 121 121 123 124 125 124 123 121 121 121 122 122 122 123 123 125 126 128 129 130 130 131 131 131 131 131 132 132 133 134 134 134 135 136 136 135 135 135 135 135 135 135 136 136 136 136 135 135 135 135 136 137 138 138 139 139 139 138 137 137 137 138 139 139 140 141 141 141
96 97 99 101 103 105 107 108 110 111 113 114 116 117 119 120 121 120 120 120 122 123 124 125 124 123 122 121 122 122 123 123 123 124 126 127 128 129 130 130 130 130 130 131 131 132 133 133 134 135 136 137 136 136 136 136 136 136 137 137 136 136 136 135 134 134 134 134 136 137 138 139 139 139 139 138 137 137 137 137 138 139 139 140 140
93 94 95 96 98 101 103 105 106 108 109 111 112 114 116 117 118 119 120 120 120 121 122 123 124 124 124 123 122 122 122 122 123 124 124 125 126 127 128 129 129 130 130 130 131 131 132 132 133 134 135 136 137 137 137 137 137 138 138 138 138 137 137 136 135 135 134 134 135 137 137 138 138 138 139 138 138 137 137 137 137 137 138 138 139
89 90 91 93 94 96 98 100 102 104 106 108 109 110 112 113 115 116 117 118 119 119 120 121 122 124 124 124 124 123 122 122 122 123 123 124 125 126 126 127 127 128 128 129 130 131 131 132 132 133 134 135 136 136 137 138 138 138 139 139 139 139 138 138 137 136 136 136 136 137 138 138 138 138 138 138 137 137 137 136 136 136 137 137 138
85 86 88 89 90 91 93 95 97 99 101 103 105 107 108 110 111 113 114 115 116 117 117 118 119 121 122 124 124 124 123 123 122 121 122 123 124 124 124 125 126 126 126 127 128 129 129 130 131 132 133 134 135 135 136 137 137 138 138 139 139 139 139 139 139 139 139 138 138 139 139 139 139 139 139 138 138 137 137 137 137 136 137 137 137
80 82 83 85 87 88 90 91 92 94 96 98 100 102 104 106 108 109 110 111 112 114 115 115 116 118 119 121 122 123 124 124 124 122 121 121 122 122 123 123 124 124 125 125 126 126 127 128 129 130 131 132 134 134 135 136 136 137 137 138 138 139 139 140 140 140 140 140 140 141 140 141 140 140 140 140 140 139 139 139 138 137 137 137 137
76 77 78 80 82 84 86 88 89 90 92 94 95 97 100 102 104 105 106 107 108 109 111 112 113 114 115 117 118 120 122 124 124 124 123 122 121 121 121 122 123 123 124 124 125 125 125 125 126 127 129 130 131 132 133 134 135 136 136 137 137 138 138 139 139 140 140 141 141 141 141 141 141 141 142 142 142 142 141 141 140 139 139 138 138
72 73 74 76 78 80 82 84 86 88 89 90 91 93 95 97 99 100 101 102 103 104 106 108 110 111 112 113 114 116 118 121 123 124 124 123 121 120 120 121 122 122 123 123 124 124 124 125 125 125 126 127 128 129 130 132 133 134 135 135 136 137 137 138 139 139 140 140 141 141 140 140 141 141 142 142 142 142 142 142 142 141 140 139 139
70 71 72 73 75 76 78 81 83 86 87 87 88 88 90 92 94 95 96 97 98 100 101 103 105 106 108 110 111 112 113 115 119 121 123 123 122 121 121 121 122 122 122 122 123 123 124 124 124 124 124 125 126 126 128 129 130 131 132 133 134 135 136 137 137 138 139 140 140 140 140 139 140 140 141 142 142 142 142 142 141 140 140 139 139
68 69 70 71 72 74 75 77 80 83 85 86 86 86 86 87 89 90 91 92 94 95 96 98 99 101 103 105 107 109 110 111 113 116 119 120 120 120 122 122 122 122 122 122 122 122 123 123 124 124 124 124 124 124 125 126 127 129 129 130 131 132 133 134 135 136 137 137 138 138 138 139 139 140 140 141 142 142 142 141 141 140 140 139 139
65 66 67 69 70 71 72 74 77 80 82 83 84 84 84 84 85 86 87 88 89 90 91 92 93 96 97 99 101 104 107 109 109 111 114 116 116 117 120 121 122 122 122 121 121 121 121 122 123 123 124 124 124 124 125 125 126 127 127 128 129 129 130 131 132 133 133 134 135 135 136 136 136 137 138 139 140 140 140 140 140 140 139 139 139
63 63 64 66 67 67 68 70 73 76 79 81 81 81 81 81 82 83 83 84 85 86 87 87 89 91 93 94 95 98 102 105 107 108 110 111 112 114 116 119 120 121 121 121 121 120 120 121 121 122 123 123 124 124 125 125 125 126 126 126 127 127 128 129 130 130 131 131 132 132 133 133 133 134 134 135 136 136 137 137 137 137 136 136 136
62 62 62 63 63 64 64 65 67 70 74 76 78 78 77 77 78 80 81 82 82 82 83 83 85 87 89 90 91 93 97 101 103 104 106 107 108 110 113 115 117 118 119 120 120 120 120 120 120 121 122 123 123 124 125 125 125 126 126 126 126 126 127 128 128 129 129 129 129 130 130 130 131 131 131 132 132 132 133 133 133 133 133 132 132
60 61 61 61 62 62 62 61 62 65 67 70 73 75 75 76 76 77 78 79 80 80 80 80 82 84 87 88 88 90 93 96 98 100 102 103 104 106 109 112 114 115 117 117 118 119 119 119 119 119 120 120 121 122 123 124 125 125 125 126 126 126 126 127 127 128 128 128 128 128 128 128 128 128 128 128 128 129 129 129 129 129 129 129 128
60 60 60 60 61 61 61 61 61 61 63 65 67 69 71 73 74 74 75 76 77 78 78 79 80 83 84 85 86 88 90 93 94 96 98 99 100 102 104 107 110 112 113 115 116 117 117 117 118 118 118 119 119 120 121 122 123 124 124 125 125 125 126 126 126 127 127 127 127 127 127 127 127 126 126 126 126 126 126 126 126 126 126 125 125
59 59 59 59 59 60 60 60 60 60 61 61 62 64 66 68 70 71 72 73 74 76 77 78 79 81 81 82 83 85 87 89 90 92 94 95 96 98 101 103 105 107 109 111 113 114 115 116 116 117 117 118 118 119 119 119 120 121 122 123 124 124 125 125 126 126 126 126 126 126 126 126 126 125 125 125 125 125 125 124 124 124 123 123 123
57 57 57 57 57 57 57 58 59 59 59 59 60 61 62 64 66 67 69 70 72 74 76 77 78 78 79 80 81 83 85 86 87 88 90 91 92 95 99 101 101 101 103 106 109 111 113 114 115 116 116 117 117 117 117 118 118 119 119 120 121 122 123 124 124 125 125 125 125 125 125 124 124 124 124 124 123 123 123 123 123 122 122 122 122
55 55 55 55 55 55 55 56 57 58 58 57 58 59 59 61 63 64 65 67 69 71 73 75 76 77 77 77 79 81 82 83 83 85 86 88 89 91 95 99 98 97 98 100 103 107 109 112 114 115 115 116 116 116 116 117 117 118 118 119 119 120 120 121 122 123 124 124 124 123 123 123 122 122 122 122 122 122 121 121 122 121 121 121 121
54 53 53 53 52 53 53 54 55 56 56 56 56 57 57 59 60 62 63 64 66 68 70 71 73 74 74 75 76 79 80 80 81 82 84 85 86 87 91 95 96 95 94 95 97 101 105 108 111 112 113 114 115 115 115 116 117 118 118 118 117 117 118 119 120 121 121 122 122 122 121 121 121 121 121 121 121 121 120 120 121 121 121 121 120
52 53 52 51 51 51 52 53 53 54 54 55 55 55 56 57 58 60 61 62 63 64 66 67 69 70 71 72 73 75 76 77 78 80 81 82 83 84 87 91 92 93 93 93 93 95 99 103 106 108 110 112 113 114 115 116 117 118 118 117 117 116 116 117 118 118 119 120 120 120 119 119 119 119 119 119 119 119 119 120 120 120 120 120 120
51 51 51 51 50 50 50 51 51 52 52 53 53 53 54 55 56 57 59 60 60 61 62 64 66 67 67 68 70 72 73 73 75 77 79 80 81 82 84 87 89 91 92 92 91 92 94 97 100 102 105 108 110 111 112 113 114 115 115 116 116 116 116 116 116 116 117 117 117 117 117 117 117 117 118 118 118 118 119 119 119 119 119 119 120
49 49 50 49 49 49 49 49 49 50 50 50 51 51 52 52 53 54 55 56 57 57 59 61 63 64 64 65 67 68 69 70 71 73 75 77 79 81 83 85 87 89 90 91 91 91 91 92 94 96 98 101 104 106 107 108 110 111 112 114 115 115 115 115 115 115 115 116 116 116 116 116 117 117 118 118 118 118 119 119 119 119 119 119 119
47 48 48 48 48 48 48 48 47 48 48 48 49 49 49 49 50 50 52 53 53 54 56 58 59 60 61 62 64 66 66 67 67 69 71 73 76 79 81 84 86 88 89 90 90 90 90 90 91 91 92 95 97 99 101 103 104 106 108 109 111 111 112 112 113 113 114 115 115 115 116 116 117 117 118 118 118 118 119 119 119 119 119 119 119
46 46 46 46 47 47 47 46 46 46 46 46 46 46 46 46 47 47 48 49 50 51 52 54 55 56 58 59 61 62 63 63 64 66 67 69 72 75 78 81 84 85 87 88 89 89 89 89 89 88 89 90 92 93 95 97 99 100 102 104 105 107 108 109 110 111 112 113 114 114 115 116 116 117 117 117 118 118 118 118 118 118 118 117 117
44 45 45 45 45 45 45 44 44 44 44 44 44 44 43 43 44 44 45 46 47 47 48 50 51 53 54 55 57 58 59 61 62 63 64 66 68 71 74 77 80 83 85 86 87 87 87 87 87 87 87 88 89 89 90 92 93 95 96 98 100 101 103 104 106 107 108 110 111 112 113 113 114 115 115 115 115 116 116 116 116 116 115 114 114
43 43 43 43 43 43 43 42 42 41 41 41 41 41 41 41 41 42 42 43 44 44 45 46 47 48 50 51 52 54 56 58 60 61 62 64 66 68 71 74 77 80 82 83 84 84 85 85 85 85 86 86 87 87 87 88 89 91 92 93 95 96 97 99 100 102 103 104 106 107 108 110 111 111 112 112 112 112 112 112 112 112 112 111 111
41 41 41 41 42 42 41 41 40 39 39 39 39 39 39 38 38 39 40 40 41 42 42 43 43 45 46 48 49 51 53 55 57 58 61 63 65 67 69 71 74 76 78 80 80 81 81 82 83 83 84 84 84 85 85 87 87 88 89 90 91 92 92 94 95 96 97 98 100 101 102 103 105 106 107 107 108 108 108 108 108 108 108 108 108
40 39 39 39 39 40 39 39 38 37 37 37 37 37 36 36 36 37 37 38 38 39 39 40 41 42 44 46 47 49 50 52 54 56 58 61 62 64 66 68 71 73 75 76 76 77 78 79 80 80 81 81 82 83 84 85 85 86 87 88 88 88 89 90 90 91 92 93 94 95 96 97 98 99 100 100 101 102 102 103 103 103 103 103 104
40 38 37 37 37 37 37 37 36 35 35 35 35 35 35 34 34 35 35 36 36 37 37 38 39 40 42 43 45 46 48 49 51 54 56 58 59 61 63 65 67 69 71 72 73 74 75 76 76 77 78 79 80 80 81 82 83 84 84 85 85 85 86 86 87 87 88 88 89 89 90 91 92 93 93 94 95 96 96 97 98 98 98 99 99
39 38 36 35 35 35 36 36 35 34 34 33 33 34 33 33 33 33 33 34 34 35 35 36 37 38 40 41 42 44 45 47 49 51 53 55 56 58 60 62 64 66 68 69 70 71 72 73 74 75 76 76 77 78 78 79 80 81 81 82 82 82 83 83 84 84 84 84 84 84 85 85 86 87 87 88 89 90 91 92 93 94 94 94 95
38 38 37 35 34 34 34 34 34 34 33 32 32 32 32 32 31 31 32 32 33 33 34 35 36 36 37 39 40 42 43 45 47 49 51 52 53 55 57 59 61 63 64 66 67 68 69 70 71 72 73 74 74 75 75 76 77 78 79 79 79 79 80 80 80 80 80 80 80 80 80 81 81 82 82 83 84 85 87 88 89 90 91 91 92
37 37 37 35 34 33 33 33 33 33 32 32 31 31 31 31 30 30 30 31 31 31 32 33 34 35 36 37 39 40 42 44 46 47 48 49 50 53 55 56 58 60 61 62 64 65 66 67 68 69 70 71 71 72 72 73 74 75 76 76 76 76 76 77 77 77 77 77 77 78 78 78 78 79 79 80 81 82 83 85 86 87 88 88 89
36 36 36 35 34 34 33 33 33 33 32 32 31 30 30 30 30 29 29 30 30 30 31 32 33 34 35 36 37 39 40 42 44 44 45 46 49 51 52 54 55 56 58 59 60 62 63 64 65 66 67 68 69 69 70 70 71 72 73 73 73 73 73 74 74 74 75 75 75 76 76 77 77 77 78 79 79 80 81 82 83 84 85 86 87
37 36 36 35 34 34 33 32 32 32 32 31 30 30 30 30 29 29 29 29 29 30 30 31 32 33 34 35 36 38 39 40 42 43 43 45 47 48 49 51 52 53 55 56 57 59 60 61 62 63 64 65 66 67 67 68 68 69 70 71 71 71 71 72 72 73 73 74 74 75 75 76 76 77 77 78 79 79 80 80 81 82 83 84 85
37 36 36 35 34 33 33 32 31 31 31 30 30 29 29 29 29 29 28 29 29 29 30 30 31 32 33 34 36 37 38 39 40 41 42 44 45 46 47 49 50 51 53 54 55 57 58 59 60 61 62 63 64 65 65 65 66 67 68 68 69 69 70 70 71 72 72 73 73 73 73 74 74 75 76 76 77 77 78 79 80 80 81 82 82
36 35 35 34 34 33 32 32 31 31 30 30 29 29 29 28 28 29 28 28 29 29 29 30 31 32 33 34 35 36 37 38 39 40 41 43 44 45 46 47 49 50 51 52 54 55 56 57 58 59 60 61 62 62 63 63 64 65 65 66 66 67 68 68 68 69 70 70 70 70 70 71 72 73 73 74 74 75 75 76 77 77 78 78 79
34 34 34 34 33 33 32 32 31 30 30 29 29 29 29 29 29 28 29 29 29 29 30 30 30 31 32 33 34 35 36 37 38 39 40 41 42 43 44 45 47 48 49 50 51 53 54 55 56 57 58 59 59 60 60 61 61 62 62 63 64 64 65 65 66 66 67 67 67 67 68 69 69 70 70 70 71 72 72 73 74 74 75 75 76
33 33 33 33 32 32 32 32 31 30 30 30 29 29 29 29 29 29 29 30 30 30 30 31 31 31 32 33 34 34 35 36 37 38 39 40 41 42 43 43 44 45 47 48 49 50 51 52 53 54 54 55 56 56 57 57 58 58 59 60 61 61 62 62 63 63 64 64 64 65 65 66 67 67 67 68 68 69 69 70 71 71 71 72 72
33 32 32 32 32 31 31 31 31 31 30 30 30 30 30 30 30 30 30 30 31 31 31 32 32 32 32 33 34 34 35 36 37 37 38 39 40 41 41 42 43 44 45 45 46 47 48 49 50 50 51 51 52 53 54 54 55 56 57 57 57 58 58 59 60 61 61 61 61 62 63 63 64 64 65 65 66 66 67 67 67 68 68 69 69
34 33 32 32 32 31 31 31 31 31 31 30 30 30 30 31 31 31 31 31 31 31 32 32 33 33 33 34 34 35 35 36 36 37 38 38 39 40 41 41 42 43 43 44 44 45 46 47 47 48 48 49 50 51 52 52 53 53 53 54 54 54 55 56 57 58 58 58 59 59 60 61 61 62 62 62 63 63 64 64 65 65 66 66 67
35 34 33 32 32 31 31 31 30 31 31 31 31 31 31 31 31 32 32 32 32 32 32 32 33 33 34 34 35 35 36 36 36 37 37 38 39 40 40 41 41 42 43 43 44 44 45 45 46 46 46 47 48 49 50 50 51 51 51 51 51 52 53 54 55 56 56 56 56 57 57 58 59 59 59 60 60 61 61 62 63 63 64 64 65
34 33 33 32 32 31 32 31 31 31 31 31 32 32 31 31 31 32 32 33 33 33 33 32 33 33 33 34 35 35 36 36 37 37 37 38 39 40 40 40 41 41 42 43 43 44 44 45 45 45 45 46 47 47 48 49 49 49 49 49 49 50 50 52 52 53 53 54 55 55 55 55 56 56 57 57 58 59 59 60 60 61 61 62 62
34 33 33 32 32 32 32 32 32 32 31 31 32 32 32 32 32 32 32 33 33 33 33 33 33 33 33 34 35 35 36 36 36 37 37 38 38 39 40 40 40 41 42 42 43 43 43 44 44 44 45 45 45 46 47 47 47 48 48 48 49 48 49 50 51 51 52 53 53 53 54 54 54 55 55 56 56 57 57 58 58 59 59 60 61
35 34 33 33 33 33 33 33 33 33 33 32 32 32 33 33 33 33 33 33 33 33 33 33 33 33 33 33 34 35 35 36 36 36 37 37 38 39 39 39 40 41 41 42 42 42 43 42 43 43 44 44 45 45 46 46 46 46 47 47 48 48 48 49 50 51 51 52 52 52 52 53 53 54 54 54 55 55 56 56 57 57 58 58 59
36 35 35 34 34 34 34 34 34 34 34 34 34 33 33 33 33 34 34 34 33 33 34 33 33 33 33 33 33 34 35 35 35 36 36 36 37 38 38 38 39 39 40 41 41 42 42 42 42 42 43 43 44 44 45 45 45 45 45 46 47 47 47 48 49 50 50 50 50 51 51 51 52 52 52 53 53 53 54 54 55 56 56 56 57
37 37 36 36 35 35 35 35 35 35 35 35 35 35 35 34 34 34 34 34 34 34 34 34 34 34 33 33 33 33 34 34 35 35 35 35 36 36 37 37 37 38 39 39 40 41 41 40 41 41 42 42 42 43 43 43 43 43 44 44 45 45 45 46 46 47 47 48 48 48 48 49 49 50 50 50 51 51 51 52 52 53 53 53 53
37 37 37 37 37 36 36 36 36 36 36 36 36 36 36 36 35 35 35 35 35 34 35 35 34 34 34 33 33 33 33 33 34 35 35 35 35 35 36 36 36 36 37 37 38 39 39 39 40 40 40 41 41 41 41 41 41 41 41 41 42 42 42 43 43 44 44 45 45 45 45 46 46 47 47 48 48 48 49 49 49 49 49 49 49
37 37 37 38 38 38 37 37 37 36 37 37 37 37 36 36 36 36 36 35 35 35 35 35 35 35 34 34 34 33 33 33 33 34 34 34 34 35 35 36 36 36 36 36 37 37 37 38 38 39 39 39 39 40 40 39 39 39 39 39 39 39 40 40 40 41 41 41 42 42 43 43 43 44 44 45 45 46 46 46 46 46 46 46 47
Wind_Direction
263 262 261 260 259 259 258 258 258 258 258 257 255 254 254 254 255 255 254 252 251 250 250 249 249 248 247 247 247 247 247 247 247 248 248 247 247 247 246 246 246 246 246 246 246 246 247 247 247 247 246 246 247 247 248 248 249 249 250 250 251 252 253 253 253 252 252 252 253 254 255 256 257 257 258 258 258 259 259 259 259 260 261 261 262
264 263 262 262 261 260 259 258 258 258 258 258 257 256 254 253 253 254 254 254 253 251 250 249 249 249 248 248 247 247 247 247 247 248 248 248 248 247 247 247 246 246 246 247 247 246 246 247 247 248 247 247 247 247 248 248 248 249 250 250 251 251 252 253 254 254 253 253 253 254 255 255 256 257 257 258 258 259 259 260 260 260 260 261 261
264 263 263 262 262 261 260 259 258 258 257 257 257 257 257 255 254 253 253 253 254 253 252 250 249 248 248 248 247 247 247 247 247 247 248 248 248 248 248 247 247 247 247 247 247 247 247 247 247 248 248 248 248 248 248 248 248 249 249 250 251 251 251 253 254 255 255 254 254 254 254 255 255 256 257 257 258 259 259 260 260 261 261 261 261
264 262 262 261 261 261 260 259 259 258 258 257 257 257 257 257 256 254 253 252 253 253 253 252 251 250 248 248 247 247 247 246 246 247 247 248 248 248 248 248 248 248 247 247 247 247 247 247 247 248 248 248 248 248 249 249 249 249 249 249 250 250 251 252 253 254 255 256 255 255 254 255 255 255 256 256 257 258 259 259 260 261 261 262 262
265 263 262 261 260 260 260 259 258 258 257 257 257 257 257 257 257 256 255 253 253 253 253 253 252 252 251 249 248 247 247 246 246 246 247 247 248 248 248 248 248 248 248 248 248 247 247 247 247 248 248 249 249 249 249 249 250 250 250 250 250 250 250 251 251 252 254 255 256 256 256 256 256 256 256 256 257 257 258 259 260 260 261 262 262
266 265 264 262 261 260 260 259 259 258 258 257 257 256 256 256 256 256 256 255 254 253 252 252 252 252 252 251 250 249 248 247 246 246 246 246 247 247 248 248 248 248 248 248 248 248 248 248 248 248 248 249 249 249 249 249 250 250 250 251 251 251 251 251 251 251 252 253 254 255 256 256 257 257 257 257 257 257 258 258 259 260 261 261 262
267 266 265 264 263 261 261 260 260 259 259 258 258 257 256 256 256 256 255 255 255 254 253 252 252 252 252 252 252 251 250 249 248 247 246 246 246 247 247 248 248 248 248 248 249 249 249 249 248 248 249 249 249 249 250 250 250 250 250 251 251 252 252 252 252 251 251 252 252 254 255 256 256 257 257 257 258 258 258 258 259 259 260 261 261
268 267 266 265 264 263 262 260 260 259 259 259 258 258 257 257 256 256 255 255 254 254 253 253 252 252 252 252 252 252 252 251 250 249 247 247 246 246 247 247 248 248 248 248 248 248 249 249 249 249 249 250 250 250 250 250 250 251 251 251 251 252 252 252 253 252 252 252 252 253 254 255 255 256 257 258 258 258 258 258 258 259 260 260 261
268 267 267 266 265 265 263 262 261 260 259 258 258 258 257 257 257 256 255 255 255 254 254 253 252 252 251 251 251 252 252 252 252 251 250 249 248 247 246 247 247 248 248 248 248 248 248 249 249 250 250 250 250 250 251 251 251 251 252 252 252 252 252 253 253 253 253 253 253 253 254 254 255 255 256 257 258 258 258 259 259 259 260 261 261
269 268 267 266 265 265 264 264 263 261 260 259 258 258 257 257 257 256 256 255 255 255 254 254 253 252 252 251 251 251 251 252 252 252 252 251 250 249 248 247 247 247 247 248 248 248 248 248 248 249 249 250 250 251 251 252 252 252 252 252 253 253 253 253 254 254 254 254 254 254 254 255 255 256 256 257 257 258 258 259 259 260 260 261 261
270 269 268 267 266 265 265 264 264 263 262 261 259 259 258 258 257 257 257 256 256 255 255 254 254 253 253 252 251 250 250 250 251 252 252 252 252 251 250 249 248 248 247 247 248 248 249 249 248 248 249 249 250 250 251 251 252 252 253 253 253 253 254 254 254 254 255 255 255 255 255 256 256 256 257 257 257 258 258 259 259 259 260 261 261
272 270 269 267 266 265 264 264 264 264 263 262 261 260 259 259 258 258 258 257 256 255 255 254 254 254 253 253 252 252 250 250 250 250 251 252 252 252 251 251 250 249 249 248 248 248 248 248 249 249 249 249 249 250 250 251 252 252 252 253 253 254 254 254 254 255 255 255 256 256 256 257 257 257 258 258 258 259 259 259 260 260 260 261 261
272 271 270 269 267 266 264 264 263 263 263 263 263 262 260 259 259 258 258 258 257 256 255 254 254 253 253 253 253 253 252 251 250 249 250 250 251 251 251 251 251 251 250 250 249 248 248 248 249 249 249 249 250 250 250 251 251 252 252 252 253 253 254 254 255 255 256 256 256 256 257 257 257 258 258 259 259 259 260 260 260 261 261 261 261
273 272 270 269 268 267 266 264 264 264 264 264 263 263 262 261 260 259 259 258 258 257 257 256 254 254 253 252 252 252 252 252 251 250 249 249 249 250 250 251 251 251 251 251 250 250 249 249 249 249 249 250 250 250 250 251 251 252 252 252 253 253 254 254 255 255 256 256 257 257 257 257 258 258 258 259 259 260 260 261 261 261 261 262 262
276 274 272 270 268 267 266 265 264 264 264 265 264 264 263 263 262 261 260 259 258 258 257 257 256 255 254 252 251 250 251 252 251 251 250 249 249 249 249 249 250 251 251 251 251 251 250 250 250 250 250 250 250 250 251 251 251 252 252 252 253 253 254 254 255 255 255 256 256 257 257 258 258 258 259 259 260 260 261 261 261 262 262 262 262
279 277 275 273 271 269 266 264 263 263 263 264 265 265 264 263 262 261 261 260 259 258 257 256 256 255 254 253 251 250 249 250 250 250 250 250 249 248 248 249 249 249 250 250 251 251 251 251 250 250 250 250 250 250 251 251 251 252 252 253 253 253 254 254 255 255 256 256 256 257 257 258 258 258 259 259 260 260 261 261 262 262 263 263 263
282 280 279 277 275 273 270 267 264 262 262 262 262 263 263 263 262 260 260 260 259 259 258 256 255 254 253 253 252 250 249 249 249 249 249 249 249 248 248 248 248 248 249 249 250 250 251 251 251 251 251 250 250 250 250 251 251 252 252 252 253 253 254 254 255 256 256 256 257 257 258 258 258 259 259 260 260 261 261 262 262 263 263 263 264
284 283 281 280 278 277 275 272 269 266 263 262 261 261 261 262 262 261 260 259 259 259 258 256 255 254 253 252 251 250 249 249 248 248 248 248 248 248 248 248 248 248 248 248 249 249 250 250 251 251 252 252 251 251 251 251 251 251 252 252 253 253 254 254 255 255 256 256 257 257 258 259 259 260 260 260 261 261 262 263 263 263 264 264 264
285 283 282 281 279 278 276 275 273 270 267 265 263 262 261 261 260 260 259 259 258 258 257 256 255 254 253 252 252 250 250 249 249 248 248 248 248 248 248 248 247 247 247 248 248 249 249 250 250 251 251 252 252 252 252 252 252 251 252 252 253 253 254 254 255 255 256 256 257 258 258 259 259 260 260 261 261 262 262 263 263 264 264 264 265
285 284 283 281 279 278 277 276 274 272 271 269 267 265 263 262 260 259 258 258 257 256 256 256 255 255 254 253 252 251 250 249 248 248 248 247 247 247 248 248 248 247 246 247 248 248 249 249 250 250 251 251 252 252 253 253 253 253 253 253 253 253 254 254 255 256 256 257 257 258 258 259 259 260 260 261 261 262 263 263 264 264 264 264 265
287 285 284 283 281 280 278 277 275 274 273 271 269 268 266 264 263 261 260 258 257 256 256 255 255 254 253 252 252 251 250 249 248 247 247 247 246 246 246 248 248 247 246 246 247 247 248 249 249 250 250 250 251 252 252 253 254 254 254 254 254 254 254 255 255 256 256 257 257 258 258 259 260 260 261 261 262 262 262 263 263 264 264 264 264
288 287 286 285 283 282 280 278 277 276 275 273 271 270 268 266 265 263 262 260 259 258 257 256 255 255 254 253 252 251 251 250 249 247 246 246 245 245 245 247 248 248 247 247 246 246 247 248 248 249 249 250 250 251 252 252 253 254 254 254 255 255 255 255 256 256 257 257 258 258 258 259 259 260 260 261 261 262 262 262 263 263 263 264 264
290 289 288 287 285 283 281 280 278 277 276 275 273 272 270 268 266 264 263 261 260 258 258 257 256 255 255 254 253 252 251 251 249 248 246 245 244 244 244 245 246 247 247 247 246 246 246 247 247 248 249 249 250 250 251 251 252 253 254 254 255 255 256 256 256 257 257 257 258 258 258 259 259 259 260 260 261 261 262 262 262 263 263 263 263
291 290 289 288 287 285 283 281 280 278 277 276 274 272 270 268 266 265 263 262 261 259 257 256 255 254 253 253 252 252 251 250 249 248 247 246 244 243 243 243 245 245 246 246 246 246 246 246 247 247 248 249 249 250 250 251 251 252 253 254 255 255 255 256 256 257 257 257 258 258 259 259 259 260 260 260 260 260 261 261 261 262 262 262 262
291 291 290 289 288 286 285 283 281 279 278 276 274 272 270 268 266 265 263 262 261 259 257 256 255 254 253 252 251 250 250 249 249 248 248 247 246 244 242 242 243 244 245 245 245 245 245 245 246 246 247 248 249 249 250 251 251 252 252 253 254 254 255 255 256 256 257 258 258 259 259 259 259 260 260 260 260 260 260 260 261 261 261 261 262
293 292 291 290 289 287 286 284 282 281 279 277 275 273 271 269 267 265 264 262 261 259 257 255 254 254 253 252 250 249 249 248 248 248 248 248 247 246 244 243 242 243 244 245 245 245 245 246 246 246 247 247 248 249 250 251 251 252 252 253 253 254 255 255 256 256 257 257 258 258 258 259 259 259 259 259 260 260 260 260 260 261 261 261 262
294 293 292 290 289 288 286 285 283 281 280 278 276 274 272 270 268 266 265 263 261 259 257 255 254 253 252 251 250 249 248 247 247 247 247 247 247 247 246 244 244 244 244 245 245 246 246 246 246 247 247 247 248 249 250 250 251 252 252 253 254 254 255 255 256 256 256 257 257 258 258 258 258 259 259 259 259 260 260 260 260 260 261 261 261
295 294 293 291 290 288 287 285 284 282 280 279 277 275 273 271 269 268 266 264 262 260 258 256 254 253 252 251 250 249 248 247 246 246 246 246 246 246 246 245 245 245 245 245 246 246 247 247 247 247 248 248 248 249 249 250 251 252 252 253 253 254 254 255 255 256 256 257 257 258 258 258 259 259 259 259 260 260 260 261 261 261 261 262 262
296 295 294 292 291 289 287 286 284 283 281 279 278 276 275 273 271 269 267 265 263 261 259 257 255 254 253 252 251 250 248 247 246 246 245 245 245 245 245 245 245 245 246 246 246 247 247 248 248 248 248 249 249 250 250 251 251 252 253 253 254 254 254 255 255 256 256 257 257 258 258 259 259 259 260 260 260 260 261 261 261 262 262 263 263
297 295 294 293 291 290 289 287 285 284 282 281 279 278 276 274 272 270 267 265 263 261 259 258 256 255 254 252 251 250 249 248 247 246 245 244 244 244 245 245 245 246 246 247 247 248 248 249 249 249 250 250 250 251 251 252 252 253 253 254 254 255 256 256 257 257 257 258 258 258 259 259 259 260 260 260 261 261 261 261 261 262 262 263 264
298 296 295 293 292 291 290 289 287 286 284 282 280 279 277 275 274 271 269 266 263 261 260 259 257 256 254 253 251 250 250 249 248 246 245 245 245 245 245 246 246 247 248 248 249 249 249 249 250 250 251 251 251 252 252 253 253 254 255 255 256 257 257 258 258 259 259 259 259 260 260 260 260 260 261 261 261 261 261 261 262 262 262 263 263
299 298 296 295 293 292 291 290 289 288 286 284 282 281 279 277 275 273 271 268 265 262 260 259 257 256 255 254 252 251 250 249 248 247 246 246 245 245 246 246 247 248 249 249 249 250 250 251 251 251 252 252 252 253 253 254 255 256 256 257 258 259 259 260 260 260 260 261 261 261 260 261 261 261 261 261 261 261 262 262 262 262 262 263 263
300 299 298 296 294 294 293 292 291 290 288 286 284 282 280 279 277 274 272 270 267 264 262 260 258 257 256 255 253 252 251 249 249 248 247 247 247 246 247 247 247 248 249 249 250 251 251 251 252 252 252 253 253 254 254 255 256 257 258 259 260 260 261 261 261 262 262 262 262 262 261 261 261 261 261 261 261 262 262 262 263 263 263 263 264
302 301 299 298 296 295 294 294 293 291 290 288 286 284 282 280 278 276 273 271 268 266 263 261 260 258 257 256 255 253 252 251 250 249 249 248 248 247 247 247 247 248 249 250 250 251 251 252 252 253 253 254 254 255 256 256 257 258 259 260 260 261 261 262 262 263 263 263 263 262 262 262 261 261 261 261 261 261 262 262 262 263 263 264 264
304 302 302 301 299 298 296 295 294 293 291 289 288 286 284 282 279 277 274 272 270 267 264 262 260 259 258 257 256 254 253 252 251 250 250 250 249 249 248 248 248 249 249 250 250 251 251 252 252 253 254 255 255 256 256 257 257 258 259 259 260 260 261 261 262 262 262 263 263 262 262 262 262 261 261 261 261 261 261 261 262 263 263 264 264
306 304 303 302 301 299 298 297 295 294 292 291 289 287 285 283 281 278 276 274 271 269 266 263 261 259 258 257 256 255 254 253 252 252 251 250 249 249 249 249 249 250 250 250 251 251 252 252 253 253 254 255 256 256 256 257 257 258 258 258 259 259 259 260 260 260 261 261 261 261 261 262 262 262 261 261 261 261 261 262 263 263 264 265 265
307 306 305 303 302 300 299 298 297 295 293 292 290 288 286 284 282 280 278 275 273 271 268 266 263 261 259 257 256 255 254 254 253 253 252 251 250 250 250 250 250 250 251 251 252 252 253 253 253 254 255 255 256 256 256 256 257 257 257 257 258 258 258 258 258 259 259 259 259 260 260 261 261 262 262 262 263 263 263 264 264 265 265 266 267
308 307 305 304 302 301 300 299 298 296 294 293 291 289 287 286 284 282 280 277 275 273 270 268 265 263 261 259 257 256 255 254 254 253 252 251 251 251 251 251 251 251 251 251 252 252 253 253 253 254 254 255 255 256 256 256 256 257 257 257 258 258 258 258 259 259 259 259 260 260 261 262 262 263 263 264 264 265 265 266 266 266 267 267 268
307 307 306 304 303 302 301 299 299 297 295 294 292 290 289 287 285 284 282 280 277 275 272 270 267 265 264 262 260 259 257 256 256 255 254 253 253 252 252 252 252 252 252 252 253 253 254 254 254 255 255 256 256 257 257 257 258 258 258 259 259 260 260 260 261 261 262 262 262 263 263 263 263 264 264 264 265 265 266 266 267 267 267 268 268
308 307 306 305 304 303 301 300 299 298 296 294 292 291 290 288 287 285 284 282 280 278 275 273 270 267 265 264 263 262 260 259 258 257 256 256 255 255 254 254 253 253 253 253 254 254 255 255 256 256 257 257 258 258 258 259 259 260 260 261 261 261 262 262 262 263 263 264 264 264 264 265 265 265 266 266 266 266 267 267 267 267 267 267 268
309 307 306 305 304 303 301 300 299 298 296 295 293 292 290 289 288 286 285 284 282 280 278 276 273 271 269 267 265 263 262 261 260 259 258 258 257 257 256 256 255 255 254 254 254 254 255 256 256 256 257 258 258 258 259 259 259 259 260 260 261 262 262 263 264 264 264 265 265 265 265 266 266 266 266 266 266 266 266 266 266 267 267 267 268
311 309 307 306 304 303 302 300 300 298 297 295 294 293 291 290 288 287 286 284 283 281 280 278 276 274 272 270 268 267 265 264 263 262 261 260 259 258 257 257 256 256 256 255 255 255 255 256 256 257 257 257 257 258 258 258 258 258 258 259 260 261 262 262 263 263 263 263 263 263 264 264 264 264 264 264 264 265 265 266 266 267 267 268 268
312 311 309 308 306 304 303 301 300 299 298 296 295 293 292 291 290 288 286 285 283 282 280 279 278 276 274 272 271 269 268 266 265 264 263 263 262 261 260 259 259 259 258 258 258 257 257 257 257 257 258 258 258 258 259 259 259 259 259 260 260 260 261 261 261 261 261 261 261 262 262 262 263 264 264 265 265 266 266 267 267 267 268 268 268
313 312 311 309 307 305 304 302 301 299 298 297 295 294 292 291 290 289 288 286 284 283 281 279 278 276 275 273 272 271 269 268 267 266 265 264 264 263 263 263 262 262 261 261 261 261 260 260 260 260 260 260 260 261 261 261 261 261 262 262 261 261 261 262 262 263 263 263 263 264 264 265 265 266 266 267 267 267 268 268 268 268 269 269 269
313 312 311 310 308 306 304 303 301 299 298 296 295 294 293 292 290 290 288 287 286 284 282 280 278 277 275 273 272 271 270 269 268 267 266 265 265 265 264 264 264 263 263 263 263 263 263 263 263 262 262 262 262 263 263 263 264 264 264 264 264 264 264 265 265 266 267 267 267 267 268 268 268 269 269 269 269 269 269 269 270 270 271 271 271
314 313 311 310 308 307 305 303 301 300 298 296 295 294 293 292 291 289 288 287 286 285 284 282 280 278 276 275 273 272 270 269 268 268 267 266 266 265 265 265 264 264 264 264 264 264 264 264 264 264 264 264 265 265 265 266 266 267 268 268 268 268 268 268 269 269 269 269 270 270 270 270 270 270 270 270 270 270 271 271 271 272 272 273 273
314 313 311 310 309 307 305 303 302 300 298 297 295 294 293 291 291 290 288 287 286 285 283 282 280 279 277 275 274 273 272 271 269 269 268 268 267 267 267 267 266 266 266 266 265 265 265 265 265 265 266 266 266 266 266 266 267 267 267 268 268 268 268 268 268 268 268 269 269 269 270 270 270 270 270 270 270 271 271 271 272 272 272 273 273
314 313 311 310 308 307 305 304 302 300 299 297 296 294 293 291 290 289 288 287 286 284 283 282 280 278 277 275 274 273 272 271 270 269 268 268 268 267 267 266 266 266 266 266 266 266 265 265 264 264 264 264 264 264 265 265 265 265 265 265 266 266 266 266 266 267 267 268 268 268 268 268 269 269 269 269 270 270 270 271 271 271 272 272 273
313 312 311 309 308 306 305 303 302 300 299 297 296 295 293 292 290 289 288 287 286 285 283 282 280 279 277 276 274 272 271 271 270 269 268 267 267 267 266 266 265 264 264 264 264 265 265 265 264 264 264 263 263 263 264 264 264 264 264 264 264 265 265 265 265 266 266 266 267 267 268 268 268 269 269 270 270 270 270 271 271 271 272 273 274
312 311 310 309 308 307 305 303 302 300 298 297 295 294 293 291 290 289 288 286 285 284 283 282 281 279 278 277 275 273 272 271 270 270 269 268 268 268 268 267 266 266 265 265 265 265 265 266 265 265 265 265 265 265 264 264 264 264 264 264 264 264 265 265 265 265 266 267 267 268 268 269 269 269 270 270 270 271 271 271 272 273 273 274 274
312 311 310 309 308 306 305 304 302 300 298 297 296 294 293 291 290 289 287 286 285 283 282 281 280 279 278 277 276 275 274 272 271 270 270 269 269 269 268 268 267 267 267 267 266 266 266 266 266 266 266 266 266 266 266 266 266 266 266 265 265 266 266 266 266 266 267 268 268 269 269 269 269 270 270 270 270 271 271 272 273 274 274 274 274